Regional Weather Roundup
Issued by NWS Little Rock, AR

Home | Current Version | Previous Version | Graphics & Text | Print | Product List | Glossary On
Versions: 1 2 3 4 5 6 7 8 9 10 11 12 13 14 15 16 17 18 19 20 21 22 23 24 25 26 27 28 29 30 31 32 33 34 35 36 37 38 39 40 41 42 43 44 45 46 47 48 49
000
ASUS44 KLZK 200405
RWRLZK

WEATHER ROUNDUP FOR ARKANSAS
NATIONAL WEATHER SERVICE LITTLE ROCK AR
1100 PM CDT FRI SEP 19 2014

NOTE: "FAIR" INDICATES FEW OR NO CLOUDS BELOW 12,000 FEET WITH NO
SIGNIFICANT WEATHER AND/OR OBSTRUCTIONS TO VISIBILITY.

ARZ001-003-010-029-200500-
NORTHWEST ARKANSAS

CITY           SKY/WX    TMP DP  RH WIND       PRES   REMARKS
FAYETTEVILLE   CLEAR     65  65 100 CALM      30.04R FOG
FORT SMITH     CLEAR     74  68  81 E3        30.00R
HARRISON       CLEAR     66  66 100 SE3       30.05R
BENTONVILLE    CLEAR     70  64  83 S5        30.04S
ROGERS         CLEAR     69  66  90 SE5       30.05R
SILOAM SPGS    CLEAR     70  63  78 SE5       30.04S
HIGHFILL       CLEAR     68  66  93 CALM      30.03R
$$

ARZ004-005-016-200500-
NORTH CENTRAL ARKANSAS

CITY           SKY/WX    TMP DP  RH WIND       PRES   REMARKS
BATESVILLE     CLEAR     68  64  88 CALM      30.03S
FLIPPIN        CLEAR     68  63  83 CALM      30.03S
MTN HOME       CLEAR     68  65  90 E3        30.03R
$$

ARZ040-041-200500-
WEST CENTRAL ARKANSAS

CITY           SKY/WX    TMP DP  RH WIND       PRES   REMARKS
MENA             N/A     70  68  94 CALM      30.03S
MOUNT IDA      PTCLDY    70  68  93 CALM      30.01S FOG
$$

ARZ009-017-025-026-028-200500-
NORTHEAST ARKANSAS

CITY           SKY/WX    TMP DP  RH WIND       PRES   REMARKS
CORNING          N/A     66  66 100 CALM      30.04R
JONESBORO      CLEAR     68  66  93 CALM      30.02S
NEWPORT        CLEAR     69  67  93 CALM      30.03R
WALNUT RIDGE   CLEAR     68  64  88 CALM      30.03R
BLYTHEVILLE    CLEAR     70  67  90 CALM      30.03S
$$

ARZ022-023-033-042-044-200500-
CENTRAL ARKANSAS

CITY           SKY/WX    TMP DP  RH WIND       PRES   REMARKS
LITTLE ROCK    CLEAR     74  67  78 CALM      30.02R
N LITTLE ROCK  CLEAR     72  69  89 CALM      30.02R
JACKSONVILLE   CLEAR     70  68  95 CALM      30.02R
SEARCY         CLEAR     68  67  96 CALM      30.03R
HOT SPRINGS    CLEAR     72  68  87 CALM      30.02S
RUSSELLVILLE   CLEAR     69  68  96 CALM      30.02R FOG
CLINTON        FAIR      66  66 100 CALM      30.04S FOG
$$

ARZ036-200500-
EAST ARKANSAS

CITY           SKY/WX    TMP DP  RH WIND       PRES   REMARKS
WEST MEMPHIS   CLEAR     69  69 100 CALM      30.02R
$$

ARZ050-053-066-070-073-200500-
SOUTHWEST ARKANSAS

CITY           SKY/WX    TMP DP  RH WIND       PRES   REMARKS
ARKADELPHIA    FAIR      72  72 100 CALM      30.01S
CAMDEN         FOG       70  66  88 CALM      30.00S VSB 1
TEXARKANA      CLEAR     72  72 100 E3        29.99S FOG
EL DORADO      CLEAR     70  69  97 CALM      30.00S
DE QUEEN       CLEAR     72  70  93 NE3       29.98S FOG
$$

ARZ056-057-069-200500-
SOUTHEAST ARKANSAS

CITY           SKY/WX    TMP DP  RH WIND       PRES   REMARKS
PINE BLUFF     CLEAR     71  67  87 CALM      30.01S
STUTTGART      CLEAR     73  64  73 E3        30.03R
MONTICELLO     CLEAR     71  68  90 CALM      30.00R

$$





USA.gov is the U.S. government's official web portal to all federal, state and local government web resources and services.